sat.trackr.live / text

‹ back to catalog

GOKTURK 1A

NORAD 41875 · 2016-073A

PAYLOAD ACTIVE UNKNOWN

§ Identity

Operator
Country
TURK
Launch date
2016-12-05
Launch site
FRGUI
Launch vehicle
Mass (kg)
RCS (m²)
3.16

Purposes: earth_obs

External: N2YO · Heavens-Above · Gunter

§ Orbital elements

Epoch: 2026-05-25T04:38:34.143072Z

Period
98.44 min
Inclination
98.1272°
Eccentricity
0.0001456
Mean motion
14.62754657 rev/d
Perigee alt
683.3 km
Apogee alt
685.3 km
Semi-major
7,062.4 km
B*
5.7944e-5
RAAN
40.2251°
Arg perigee
79.3669°
Mean anomaly
280.7697°
Rev number
50,546

§ Raw data

GOKTURK 1A1 41875U 16073A   26145.19345073  .00000249  00000+0  57944-4 0  99992 41875  98.1272  40.2251 0001456  79.3669 280.7697 14.62754657505462

JSON: /api/v1/satellites/41875 · /tle

For live sub-satellite position, see the globe view (requires WebGL).

§ Visibility from observer

Set your observer location to see the next 7 days of passes ≥ 10°. The values pass through the URL so the page stays shareable.

No JS? Fill the form by hand. The geolocation button needs JavaScript.